STARLINK-11173, 60192

Orbit data source: Space-Track

STARLINK-11173, 60192 is a payload satellite owned by SpaceX/Seattle (US) in LEO that was launched on Wed, 03 Jul 2024 UTC via an FALCON 9 launch vehicle from the Air Force Eastern Test Range (AFETR). Payload-class satellites include a variety of spacecraft equipped with specific instruments for various scientific and technological missions. These include communications satellites like Starlink; space stations such as the ISS; scientific satellites like the Hubble; Earth observation satellites from companies like Planet Labs, Umbra, and HawkEye 360; GPS; miniature CubeSats for education and research; and military/defense satellites.

Loading next visibility...
Identifier
60192, 2024-124K
Orbit
LEO
Last TLE update
18 hours ago
Origin
Manufacturer
SpaceX/Seattle
Mission
Operational Commercial Communications
Bus & Motor
STARLINK V2M, Unknown motor
Mass
730 kg wet, ~700 kg dry
Launch date (UTC)
2024-07-03 (10 months ago)
Launch vehicle
FALCON 9
Launch site
Air Force Eastern Test Range (AFETR)
Object type
Payload
Rocket body
Debris
Shape & HBR
Box + 2 Pan, 29 m
Radar Cross Section
36.964 m², Large (>1 m²)

Expand to show TLE details & history

TLE from 18 hours ago
0 STARLINK-11173
1 60192U 24124K   25128.53233364  .00000459  00000-0  86518-5 0  9999
2 60192  53.1594 225.7128 0001375 122.8495 237.2655 15.69704501 49787
Epoch: 2025-05-08T12:46Z
Definitive object data (Epoch: 2025-05-08T12:46:33.626Z)
Latitude
-0.00005°
Longitude
167.47117°
Altitude
361.159 km
Speed
7.694 km/s
True Right ascension
15h 02m 51s
True Declination
0° 00' 00"
Sunlit
Object was in full shadow at TLE epoch
Visualization TLE readout
Latitude
-20.14888°
Longitude
147.86198°
Altitude
366.159 km
Speed
7.689 km/s
Apparent Right ascension
10h 44m 05s
Apparent Declination
-68° 35' 04"
Sunlit
Object is in full shadow
Visualization observer readout
Local Sidereal Time
15:09:14
Azimuth
202.47° SSW
Elevation
-28.995°
Doppler factor
1
Orbital elements
Apogee altitude
360.93 km
Perigee altitude
359.077 km
Semi-major axis
6,738.14 km
Eccentricity
0.0001375
Inclination
53.1594°
RAAN
225.7128°
Arg. of periapsis
122.8495°
True anomaly
237.25225°
Mean anomaly
237.2655°
Eccentric anomaly
237.25887°
Mean motion
3.92404 °/min
BSTAR
0.0000086518
Orbital period
91.74 mins
Loading maneuver chart data...
Loading SW <> Apogee altitude chart data...
Loading historical data...
Loading historical data...
Loading historical data...
Loading historical data...
Loading historical data...
Loading historical data...
Loading historical data...

STARLINK-11173 Visibility forecast

Observer location: undefined°, undefined°

Span
Click to sort rows by Start time (UTC) header in descending order
Start Az.
Max El. time (UTC)
Max El. Az.
Max El.
End time (UTC)
End Az.
4 mins2025-05-09 08:49:18.515Z206.559° SW2025-05-09 08:51:18.515Z129.913° SE37.131°2025-05-09 08:53:18.515Z64.468° ENE
4 mins2025-05-09 15:14:18.515Z340.18° N2025-05-09 15:16:18.515Z53.796° ENE27.272°2025-05-09 15:18:18.515Z98.264° ESE
|